Regional Weather Roundup
Issued by NWS Little Rock, AR

Home | Current Version | Previous Version | Graphics & Text | Print | Product List | Glossary On
Versions: 1 2 3 4 5 6 7 8 9 10 11 12 13 14 15 16 17 18 19 20 21 22 23 24 25 26 27 28 29 30 31 32 33 34 35 36 37 38 39 40 41 42 43 44 45 46 47 48 49 50
000
ASUS44 KLZK 021305
RWRLZK

WEATHER ROUNDUP FOR ARKANSAS
NATIONAL WEATHER SERVICE LITTLE ROCK AR
800 AM CDT TUE SEP 02 2014

NOTE: "FAIR" INDICATES FEW OR NO CLOUDS BELOW 12,000 FEET WITH NO
SIGNIFICANT WEATHER AND/OR OBSTRUCTIONS TO VISIBILITY.

ARZ001-003-010-029-021400-
NORTHWEST ARKANSAS

CITY           SKY/WX    TMP DP  RH WIND       PRES   REMARKS
FAYETTEVILLE   LGT RAIN  65  65 100 VRB5      30.10R
FORT SMITH     CLOUDY    78  73  84 NE6       30.01R
HARRISON       LGT RAIN  65  65 100 W5        30.09F
BENTONVILLE    CLOUDY    66  63  88 S9        30.11R
ROGERS         RAIN      65  63  93 S9        30.11R
HIGHFILL       LGT RAIN  66  65  96 NE5       30.08R FOG
SPRINGDALE     RAIN      66  64  94 SE9G16    30.09R
$$

ARZ004-005-016-021400-
NORTH CENTRAL ARKANSAS

CITY           SKY/WX    TMP DP  RH WIND       PRES   REMARKS
BATESVILLE     CLOUDY    72  66  83 CALM      30.04F
FLIPPIN        CLOUDY    70  64  83 S6        30.07R
MTN HOME       LGT RAIN  68  68 100 VRB5      30.07R
$$

ARZ040-041-021400-
WEST CENTRAL ARKANSAS

CITY           SKY/WX    TMP DP  RH WIND       PRES   REMARKS
MENA           CLOUDY    81  73  78 CALM      30.04R HX  85
MOUNT IDA      CLOUDY    79  74  84 CALM      30.01R
$$

ARZ009-017-025-026-028-021400-
NORTHEAST ARKANSAS

CITY           SKY/WX    TMP DP  RH WIND       PRES   REMARKS
CORNING          N/A     72  66  83 NW6       30.02S
JONESBORO      CLOUDY    76  73  91 SW9       30.01R
NEWPORT        CLOUDY    75  72  91 NW5       30.05R
WALNUT RIDGE   CLOUDY    72  66  83 N6        30.00F
BLYTHEVILLE    MOSUNNY   77  75  93 SW12      30.01R
$$

ARZ022-023-033-042-044-021400-
CENTRAL ARKANSAS

CITY           SKY/WX    TMP DP  RH WIND       PRES   REMARKS
LITTLE ROCK    PTSUNNY   78  74  87 S8        30.02S
N LITTLE ROCK    N/A     77  76  95 S8        30.02S
JACKSONVILLE   MOSUNNY   79  75  89 S8        30.01F
SEARCY         PTSUNNY   77  75  93 MISG      30.04R
HOT SPRINGS    PTSUNNY   79  74  84 S5        30.03R
RUSSELLVILLE   CLOUDY    78  70  76 N5        30.03R
CLINTON        PTSUNNY   72  70  94 CALM      30.05S
$$

ARZ036-021400-
EAST ARKANSAS

CITY           SKY/WX    TMP DP  RH WIND       PRES   REMARKS
WEST MEMPHIS   PTSUNNY   76  76 100 S8        30.02R
$$

ARZ050-053-066-070-073-021400-
SOUTHWEST ARKANSAS

CITY           SKY/WX    TMP DP  RH WIND       PRES   REMARKS
ARKADELPHIA    PTSUNNY   77  77 100 CALM      30.03R
CAMDEN         CLOUDY    77  73  88 S5        30.01R
TEXARKANA      MOSUNNY   78  75  90 S6        29.99R
EL DORADO      PTSUNNY   76  75  97 S6        30.02R
DE QUEEN       CLOUDY    77  75  93 E5        29.99R FOG
$$

ARZ056-057-069-021400-
SOUTHEAST ARKANSAS

CITY           SKY/WX    TMP DP  RH WIND       PRES   REMARKS
PINE BLUFF     CLOUDY    77  73  87 CALM      30.05R
STUTTGART      CLOUDY    75  72  88 S8        30.04F
MONTICELLO     CLOUDY    78  74  87 SW6       30.03R

$$





USA.gov is the U.S. government's official web portal to all federal, state and local government web resources and services.